CZ-3B DEB, 40193

Orbit data source: Space-Track

CZ-3B DEB, 40193 is space debris in HEO originally from a launch on Mon, 19 Dec 2011 UTC launched from the Xichang Space Center, China (XSC). Debris objects in space refer to the collection of defunct objects orbiting the Earth. Examples of debris include non-operational satellites, rocket bodies, and fragments generated from explosions, collisions, or faulty payload assembly.

Loading next visibility...
Identifier
40193, 2011-077S
Orbit
HEO
Last TLE update
2 days ago
Origin
Manufacturer
CALT
Mission
Spacecraft
Bus & Motor
Unknown
Mass
Unknown
Launch date (UTC)
2011-12-19 (14 years ago)
Launch vehicle
Unknown
Launch site
Xichang Space Center, China (XSC)
Object type
Payload
Rocket body
Debris
Shape & HBR
Unknown
Radar Cross Section
Medium (>0.1 m² and <1 m²)

Expand to show TLE details & history

TLE from 2 days ago
0 CZ-3B DEB
1 40193U 11077S   25181.84393614  .00000022  00000-0  12779-1 0  9999
2 40193  25.8800 120.8065 7398646 185.7308 154.5511  1.86775618 69599
Epoch: 2025-06-30T20:15Z
TLE epoch observation values (Epoch: 2025-06-30T20:15:16.082Z)
Latitude
0.00008°
Longitude
-102.17165°
Altitude
41,430.902 km
Speed
1.537 km/s
True Right ascension
08h 03m 10s
True Declination
0° 00' 00"
Sunlit
Object was in daylight at epoch
Visualization orbit readout
Latitude
24.07668°
Longitude
-36.13988°
Altitude
12,888.103 km
Speed
5.203 km/s
Apparent Right ascension
11h 22m 59s
Apparent Declination
12° 13' 22"
Sunlit
Object is in daylight
Visualization observer readout
Local Sidereal Time
17:47:00
Azimuth
283.198° WNW
Elevation
3.295°
Doppler factor
1
Orbital elements
Apogee altitude
42,086.907 km
Perigee altitude
868.101 km
Semi-major axis
27,855.641 km
Eccentricity
0.73986
Inclination
25.88°
RAAN
120.8065°
Arg. of periapsis
185.7308°
True anomaly
Unknown
Mean anomaly
154.5511°
Eccentric anomaly
Unknown
Mean motion
0.46685 °/min
Orbital period
771.13 mins
BSTAR
0.012779
Loading maneuver chart data...
Loading SW <> Apogee altitude chart data...
Loading historical data...
Loading historical data...
Loading historical data...
Loading historical data...
Loading historical data...
Loading historical data...
Loading historical data...

CZ-3B DEB Visibility forecast

Observer location: undefined°, undefined°

Span
Click to sort rows by Start time (UTC) header in descending order
Start Az.
Max El. time (UTC)
Max El. Az.
Max El.
End time (UTC)
End Az.
23 mins2025-07-03 06:26:23.464Z273.635° WNW2025-07-03 06:43:23.464Z239.569° WSW17.468°2025-07-03 06:49:23.464Z201.579° SSW
57 mins2025-07-03 22:33:23.464Z238.615° WSW2025-07-03 22:59:23.464Z241.867° WSW10.481°2025-07-03 23:30:23.464Z246.049° WSW
|